Prague, Czech Republic

9:19 AM CEST on July 26, 2017 (GMT +0200)
Ruzyne

Weather History for LKPR - April, 2012

Change the Weather History Date:

Friday, April 27, 2012

  Actual Average Record
Temperature  
Mean Temperature 62 °F -  
Max Temperature 78 °F 64 °F 78 °F (2012)
Min Temperature 46 °F 44 °F 33 °F (2016)
Degree Days  
Heating Degree Days 3    
Growing Degree Days 12 (Base 50)    
Moisture  
Dew Point 47 °F    
Average Humidity 55    
Maximum Humidity 82    
Minimum Humidity 32    
Precipitation  
Precipitation 0.00 in 0.10 in - ()
Sea Level Pressure  
Sea Level Pressure 30.01 in    
Wind  
Wind Speed 6 mph ()    
Max Wind Speed 11 mph    
Max Gust Speed -    
Averages and records for this station are not official NWS values.
T = Trace of Precipitation, MM = Missing Value Source: Averaged Metar Reports

Daily Weather History Graph

Daily Weather History Graph

Search for Another Location

Airport or City:

Trip Planner

Search our weather history database for the weather conditions in past years. The results will help you decide how hot, cold, wet, or windy it might be!

Date:

Astronomy

Apr. 27, 2012 Rise Set
Actual Time 5:45 AM CEST 8:16 PM CEST
Civil Twilight 5:09 AM CEST 8:52 PM CEST
Nautical Twilight 4:24 AM CEST 9:38 PM CEST
Astronomical Twilight 3:30 AM CEST 10:32 PM CEST
Moon 9:56 AM CEST (4/27) 1:02 AM CEST (4/27)
Length of Visible Light 15h 42m
Length of Day
14h 30m
Waxing Crescent, 30% of the Moon is Illuminated
Apr 27
Waxing Crescent
Apr 29
First Quarter
May 6
Full
May 12
Last Quarter
May 21
New

Hourly Weather History & Observations

Time (CEST) Temp. Dew Point Humidity Pressure Visibility Wind Dir Wind Speed Gust Speed Precip Events Conditions
12:00 AM 57.2 °F 44.6 °F 63% 29.92 in - SSE 5.8 mph - N/A   Clear
12:30 AM 55.4 °F 44.6 °F 67% 29.92 in - ESE 5.8 mph - N/A   Clear
1:00 AM 53.6 °F 44.6 °F 72% 29.92 in - ESE 5.8 mph - N/A   Clear
1:30 AM 55.4 °F 44.6 °F 67% 29.95 in - East 4.6 mph - N/A   Clear
2:00 AM 54 °F 45 °F 63% 29.95 in 25 mi East 11.2 mph - -   Scattered Clouds
2:00 AM 53.6 °F 44.6 °F 72% 29.95 in - East 6.9 mph - N/A   Clear
2:30 AM 53.6 °F 44.6 °F 72% 29.95 in - East 8.1 mph - N/A   Clear
3:00 AM 53.6 °F 44.6 °F 72% 29.95 in - East 8.1 mph - N/A   Clear
3:30 AM 50.0 °F 42.8 °F 76% 29.95 in - East 6.9 mph - N/A   Clear
4:00 AM 51.8 °F 44.6 °F 76% 29.95 in - East 6.9 mph - N/A   Clear
4:30 AM 50.0 °F 42.8 °F 76% 29.95 in - ESE 6.9 mph - N/A   Clear
5:00 AM 50.0 °F 42.8 °F 76% 29.95 in - East 8.1 mph - N/A   Clear
5:30 AM 50.0 °F 42.8 °F 76% 29.98 in - ESE 6.9 mph - N/A   Clear
6:00 AM 48.2 °F 42.8 °F 82% 29.98 in - ESE 6.9 mph - N/A   Clear
6:30 AM 50.0 °F 42.8 °F 76% 29.98 in - ESE 6.9 mph - N/A   Clear
7:00 AM 50.0 °F 44.6 °F 82% 30.01 in - WSW 2.3 mph - N/A   Clear
7:30 AM 51.8 °F 46.4 °F 82% 30.01 in - West 4.6 mph - N/A   Clear
8:00 AM 58 °F 48 °F 59% 30.02 in 25 mi East 2.2 mph - -   Clear
8:00 AM 57.2 °F 46.4 °F 67% 30.01 in - Calm Calm - N/A   Clear
8:30 AM 60.8 °F 46.4 °F 59% 30.01 in - NE 3.5 mph - N/A   Clear
9:00 AM 60.8 °F 46.4 °F 59% 30.04 in - Variable 2.3 mph - N/A   Clear
9:30 AM 62.6 °F 48.2 °F 59% 30.04 in - ESE 4.6 mph - N/A   Clear
10:00 AM 64.4 °F 48.2 °F 56% 30.04 in - SSE 5.8 mph - N/A   Clear
10:30 AM 64.4 °F 50.0 °F 59% 30.04 in - South 5.8 mph - N/A   Clear
11:00 AM 66.2 °F 50.0 °F 56% 30.04 in - SSE 3.5 mph - N/A   Clear
11:30 AM 69.8 °F 50.0 °F 49% 30.04 in - South 4.6 mph - N/A   Clear
12:00 PM 69.8 °F 50.0 °F 49% 30.06 in - SE 3.5 mph - N/A   Clear
12:30 PM 71.6 °F 50.0 °F 46% 30.06 in - Variable 2.3 mph - N/A   Clear
1:00 PM 71.6 °F 48.2 °F 43% 30.06 in - SSE 2.3 mph - N/A   Clear
1:30 PM 73.4 °F 48.2 °F 41% 30.04 in - East 5.8 mph - N/A   Clear
2:00 PM 74 °F 50 °F 32% 30.00 in 22 mi East 6.7 mph - -   Clear
2:00 PM 75.2 °F 51.8 °F 44% 30.04 in - East 5.8 mph - N/A   Clear
2:30 PM 77.0 °F 50.0 °F 39% 30.04 in - SSE 6.9 mph - N/A   Clear
3:00 PM 77.0 °F 48.2 °F 36% 30.04 in - SSE 4.6 mph - N/A   Clear
3:30 PM 78.8 °F 48.2 °F 34% 30.04 in - NE 2.3 mph - N/A   Clear
4:00 PM 78.8 °F 50.0 °F 36% 30.04 in - SSE 5.8 mph - N/A   Clear
4:30 PM 78.8 °F 48.2 °F 34% 30.04 in - ESE 5.8 mph - N/A   Clear
5:00 PM 78.8 °F 50.0 °F 36% 30.04 in - SE 6.9 mph - N/A   Clear
5:30 PM 78.8 °F 48.2 °F 34% 30.04 in - SE 4.6 mph - N/A   Clear
6:00 PM 78.8 °F 50.0 °F 36% 30.04 in - SE 8.1 mph - N/A   Clear
6:30 PM 78.8 °F 50.0 °F 36% 30.04 in - SSE 5.8 mph - N/A   Clear
7:00 PM 77.0 °F 48.2 °F 36% 30.04 in - SE 6.9 mph - N/A   Clear
7:30 PM 75.2 °F 50.0 °F 41% 30.04 in - SE 8.1 mph - N/A   Clear
8:00 PM 73.4 °F 46.4 °F 38% 30.04 in - SE 6.9 mph - N/A   Clear
8:30 PM 73.4 °F 44.6 °F 36% 30.04 in - SSE 6.9 mph - N/A   Clear
9:00 PM 69.8 °F 48.2 °F 46% 30.06 in - SSE 6.9 mph - N/A   Clear
9:30 PM 69.8 °F 50.0 °F 49% 30.06 in - SSE 9.2 mph - N/A   Clear
10:00 PM 68.0 °F 50.0 °F 52% 30.06 in - SSE 8.1 mph - N/A   Clear
10:30 PM 66.2 °F 50.0 °F 56% 30.06 in - South 8.1 mph - N/A   Clear
11:00 PM 66.2 °F 48.2 °F 52% 30.06 in - South 10.4 mph - N/A   Clear
11:30 PM 64.4 °F 48.2 °F 56% 30.06 in - SSE 10.4 mph - N/A   Clear